RH
21 20 23 29 38 23 18 22 30 28 16 14 15 14 12 13 17 18 24 24 21 22 23 24 26 26 27 27 28 26 28 30 32 31 31 39 36 36 32 26 39 47 45
24 21 23 33 38 25 18 20 25 34 21 15 15 14 12 13 17 19 24 27 24 21 22 21 21 22 22 26 28 29 29 31 34 35 32 29 33 28 24 27 40 48 55
28 29 30 32 31 26 17 18 23 25 34 17 15 15 12 12 17 21 24 28 28 21 22 21 20 20 21 22 25 27 28 28 26 24 25 24 24 26 25 22 40 48 61
22 24 28 30 27 20 17 17 19 23 33 26 16 15 13 12 17 21 23 26 26 22 21 22 20 17 18 20 24 26 25 24 21 20 19 18 20 26 23 29 46 54 60
24 29 23 28 25 18 20 21 22 27 34 31 19 16 15 12 16 20 25 25 26 22 20 22 22 19 17 19 20 22 20 17 16 17 18 17 16 15 18 19 28 55 48
19 26 26 22 19 21 21 21 27 34 34 32 24 16 16 13 14 20 24 24 24 23 20 23 23 20 18 21 19 20 16 18 21 21 20 20 19 18 16 15 14 34 35
20 20 25 25 22 20 21 25 32 35 34 34 26 17 16 14 15 21 24 25 24 23 22 20 24 22 19 20 23 18 18 21 21 20 20 18 19 17 15 11 10 11 13
22 19 19 23 28 25 20 24 34 38 36 33 26 19 16 16 15 19 22 24 25 26 26 20 22 23 21 16 20 18 22 22 21 19 17 15 15 14 11 10 10 10 10
30 22 20 23 24 27 22 21 31 43 41 39 31 21 17 17 16 16 23 27 28 30 29 26 20 24 22 17 15 20 23 23 21 18 15 13 11 11 10 10 9 10 10
35 28 31 27 22 24 29 24 31 42 43 45 41 25 18 17 17 17 21 28 30 33 34 33 22 21 24 19 18 23 24 23 21 18 14 14 16 21 23 26 27 25 24
35 34 41 41 28 30 30 24 27 39 45 49 46 35 21 20 20 22 22 30 34 36 37 37 34 20 22 22 19 23 24 22 23 26 28 25 25 29 28 28 28 28 26
40 43 50 44 37 37 43 30 25 35 46 53 54 46 27 21 23 25 25 35 44 43 39 42 42 28 20 21 21 20 21 20 25 34 35 34 33 33 33 32 30 29 29
45 50 53 49 47 46 39 30 25 34 46 55 56 48 36 27 26 25 28 39 59 50 47 52 52 36 20 20 21 21 19 18 25 38 46 46 45 42 39 35 34 32 31
48 49 54 51 52 50 43 30 25 31 43 55 56 52 45 36 36 35 36 52 76 60 60 62 61 49 23 20 20 19 18 21 31 37 42 48 48 43 38 35 34 36 40
47 53 52 50 50 48 46 40 42 41 46 54 58 50 48 47 52 43 60 75 84 71 72 72 73 63 46 20 20 20 18 19 29 39 45 48 48 48 46 44 34 33 46
37 40 48 48 49 49 50 52 49 48 54 56 60 47 35 43 74 61 55 74 93 76 76 81 80 75 64 50 21 20 19 18 25 37 46 52 51 49 49 45 32 25 41
29 30 34 40 40 38 44 49 51 59 58 58 60 43 26 43 87 88 86 72 97 85 81 84 83 84 80 59 48 26 17 17 18 24 36 42 46 40 35 21 19 25 40
26 26 28 32 32 35 37 41 46 52 50 54 60 48 57 70 94 96 97 87 94 92 87 90 86 83 88 92 81 44 26 17 18 20 22 24 23 20 22 29 29 31 42
21 22 24 26 27 36 35 34 44 51 49 54 58 52 55 74 99 99 96 85 88 98 88 96 97 85 86 87 93 84 50 28 21 21 24 26 28 32 33 33 44 48 57
15 16 19 22 25 29 33 34 38 49 59 62 61 59 50 43 84 96 97 91 96 94 97 97 94 92 86 91 97 92 81 60 45 36 34 35 40 41 43 52 64 66 62
6 11 14 16 22 27 31 34 36 41 54 61 56 58 64 64 77 81 87 84 89 83 85 83 91 100 89 94 89 87 93 90 79 76 88 82 82 76 70 71 65 60 51
4 4 7 11 17 30 40 50 43 42 48 48 45 50 63 64 72 77 76 90 90 91 99 86 98 91 99 96 88 89 95 85 84 94 95 98 95 92 71 64 61 55 49
4 4 6 10 11 26 44 43 44 43 38 38 51 62 65 68 67 72 80 91 93 93 89 98 96 99 97 97 94 87 81 89 95 99 100 99 86 75 70 60 56 52 46
5 6 4 4 10 16 38 42 49 56 45 48 55 62 64 68 70 71 89 86 94 95 97 94 94 98 97 98 96 89 84 91 98 100 99 87 81 76 72 63 57 51 40
8 10 7 5 5 13 28 42 57 66 63 59 69 67 74 70 81 90 93 90 92 94 98 99 89 100 96 96 95 89 91 97 86 91 94 85 83 76 71 66 59 44 35
13 12 10 9 7 13 35 46 60 81 80 82 95 86 93 74 59 88 98 98 97 98 95 87 85 92 89 92 91 88 96 88 78 84 87 86 80 71 71 69 50 36 29
Wind_Speed
24 21 20 22 26 26 25 26 28 27 23 21 20 19 20 19 17 17 14 14 15 16 16 17 17 17 16 17 16 17 17 15 14 14 14 12 12 10 9 9 7 7 7
28 28 26 26 28 26 26 26 27 29 26 23 21 19 19 18 18 17 17 16 16 16 17 16 17 18 18 17 16 16 15 12 11 9 11 10 10 9 7 6 5 4 5
29 28 30 29 29 28 26 25 25 26 27 24 24 21 19 18 18 18 18 18 17 17 17 17 17 17 17 17 15 13 11 9 8 7 8 9 8 8 6 4 5 5 4
34 34 33 33 28 29 27 26 26 26 26 25 24 22 19 18 17 17 18 18 18 17 18 17 17 16 16 16 14 12 10 9 9 9 10 10 10 9 7 6 6 6 5
30 36 33 31 29 28 24 23 25 25 25 25 25 22 20 18 18 17 18 19 18 18 17 17 16 17 16 15 14 13 11 9 10 11 12 13 14 12 11 9 8 7 7
33 34 32 33 29 25 24 23 25 27 24 24 25 23 22 20 19 19 18 19 19 20 19 18 18 18 17 16 16 14 13 12 12 12 13 15 16 15 14 12 10 9 9
36 34 34 30 25 23 24 24 26 26 25 25 24 24 22 21 20 20 21 19 19 18 19 19 18 18 19 18 18 15 14 15 14 13 14 15 16 16 14 13 12 12 11
37 34 31 30 30 26 26 26 26 27 27 26 25 25 23 21 21 21 22 22 21 19 19 19 19 19 19 20 20 18 17 17 17 15 15 14 14 16 16 16 15 16 16
36 35 32 30 30 27 30 31 28 27 29 28 27 26 25 23 21 23 23 24 24 22 21 20 20 19 19 20 20 20 19 19 19 18 17 15 15 15 16 17 18 19 19
37 35 35 34 29 28 32 31 28 27 28 30 29 27 26 25 23 23 25 25 25 24 23 22 22 22 21 21 22 22 22 21 21 19 17 16 17 17 17 18 20 22 23
36 35 36 37 36 32 29 29 29 28 28 30 30 29 28 26 26 24 24 25 26 25 25 24 24 24 24 23 24 25 25 25 24 22 21 20 20 22 22 21 22 25 26
37 35 36 37 37 35 32 29 29 27 29 31 30 29 29 28 28 25 25 26 26 26 26 25 26 25 26 26 27 27 28 28 27 26 25 24 24 26 26 26 27 28 29
39 35 35 38 38 37 33 32 30 29 30 31 32 29 29 28 30 27 26 27 27 28 27 26 27 27 27 28 28 30 29 29 30 30 29 28 28 29 30 30 31 31 31
40 35 33 35 39 38 34 34 32 32 33 33 33 32 30 30 29 27 27 28 29 29 29 27 26 27 27 28 30 31 32 32 31 32 33 34 34 33 33 33 34 34 33
38 37 34 35 38 38 36 35 34 35 36 36 35 35 34 31 31 28 29 30 31 31 30 28 27 27 27 27 29 31 32 32 33 35 36 37 39 38 37 36 36 37 35
37 38 38 35 37 39 39 38 37 36 38 37 36 36 36 34 33 31 31 33 33 32 32 29 29 29 29 29 30 31 32 33 35 36 38 39 39 40 40 40 40 39 39
40 42 41 39 38 38 40 40 42 41 41 36 37 36 35 36 36 34 33 35 35 34 34 33 32 30 31 30 31 33 34 35 36 37 38 39 40 41 42 42 42 40 40
42 44 45 42 42 40 41 43 44 44 44 39 38 37 37 35 39 37 36 37 39 39 36 36 35 32 32 34 34 34 35 35 36 37 37 38 40 41 42 42 42 41 41
42 44 46 44 43 40 43 43 42 45 46 43 40 38 39 38 39 39 37 40 37 40 40 38 36 35 36 36 36 37 37 37 38 38 38 39 40 42 41 41 40 40 40
45 44 44 46 46 44 43 43 45 45 46 45 43 40 41 39 39 39 41 41 41 37 39 39 39 39 38 39 39 39 40 41 40 41 40 40 42 42 41 42 42 39 38
49 46 44 46 46 48 46 45 47 48 49 49 46 45 43 43 41 41 42 43 42 41 42 40 39 40 40 39 38 41 43 42 42 46 44 42 42 42 43 41 38 37 38
46 53 55 48 47 47 48 45 50 52 52 51 52 49 45 44 43 43 44 47 46 43 49 46 41 39 37 39 39 41 42 38 41 45 49 46 46 41 39 39 37 38 38
45 49 56 56 54 46 50 52 55 56 54 54 55 51 47 42 41 43 45 48 46 52 41 49 44 40 39 41 41 39 37 41 42 43 44 41 37 37 38 38 37 38 37
43 55 57 68 58 54 52 55 56 56 55 55 56 55 50 46 45 44 46 48 45 45 50 50 42 47 40 42 39 44 40 38 38 40 38 36 35 37 39 38 37 36 37
53 56 55 62 64 58 57 57 57 57 57 55 55 55 52 46 44 44 46 49 49 44 54 45 44 47 48 43 42 39 40 37 34 35 33 34 36 39 37 36 35 36 38
61 61 63 65 67 59 56 58 58 55 55 54 52 54 52 44 45 42 47 51 51 46 51 50 47 48 43 42 42 40 41 34 34 33 33 35 37 37 35 33 35 37 40
Wind_Direction
312 307 312 319 323 325 324 327 336 333 329 328 328 326 324 318 318 321 323 324 324 319 312 302 294 290 284 278 279 275 275 275 278 278 277 278 279 275 278 279 274 277 278
308 309 310 314 314 317 320 321 328 333 326 322 321 322 321 317 315 319 320 322 321 320 312 306 298 292 287 280 275 276 278 275 272 276 277 272 266 267 263 261 260 267 277
312 308 308 310 312 311 314 314 319 325 324 319 316 317 319 314 312 313 316 316 319 317 313 308 303 293 290 288 284 279 276 275 270 267 267 268 261 248 242 237 248 241 237
315 312 308 309 308 308 310 311 313 320 323 318 313 312 313 309 301 300 306 309 312 310 311 309 305 297 289 283 280 274 267 267 267 266 266 266 259 253 249 247 249 247 244
313 317 308 303 303 305 307 308 309 313 315 313 307 307 306 303 296 292 297 302 309 309 306 305 302 298 288 278 271 272 268 261 263 269 272 266 264 259 258 252 248 249 242
308 308 310 305 303 301 303 304 306 309 308 306 305 302 300 297 291 287 288 298 307 310 306 305 303 299 288 275 268 265 269 273 276 275 274 271 270 265 260 254 240 243 250
304 301 307 306 304 304 303 304 306 305 301 299 298 295 293 293 292 287 287 290 296 301 303 297 294 292 289 276 267 261 263 271 275 273 269 268 268 268 260 251 251 260 269
300 301 302 301 295 298 299 298 300 301 297 296 296 294 291 288 286 286 287 289 292 295 295 289 285 286 286 281 267 258 264 271 274 270 261 259 261 268 268 268 271 273 275
294 295 298 296 294 294 297 294 297 298 297 297 295 292 289 287 285 282 283 286 289 293 291 288 278 275 275 274 269 262 265 272 276 271 263 258 257 260 268 275 276 277 279
290 286 285 286 287 288 287 288 291 291 290 292 292 289 288 285 282 280 280 282 285 288 291 289 281 272 268 266 260 259 265 271 271 265 261 259 260 264 266 270 274 278 279
285 284 283 283 281 282 281 282 282 286 288 290 290 288 285 284 280 278 277 278 281 283 288 290 284 274 269 265 258 259 262 267 267 262 259 259 263 266 268 270 274 278 279
280 280 284 281 281 281 280 278 277 282 285 286 286 285 281 281 279 277 276 277 280 280 282 285 284 275 266 263 261 258 262 265 265 262 261 261 261 263 268 273 273 272 272
284 283 283 282 282 280 282 279 276 275 280 283 280 278 275 274 275 275 273 275 279 283 283 281 280 274 264 261 260 262 262 264 266 264 265 266 265 268 270 272 274 277 277
288 290 282 281 280 281 280 279 275 274 277 278 276 273 269 267 270 271 268 270 278 282 281 280 278 276 272 262 259 260 263 264 264 265 266 270 273 273 273 276 277 278 276
288 285 282 279 279 280 279 280 279 276 276 278 278 273 267 264 266 265 266 266 272 279 280 280 279 276 275 269 263 261 262 264 264 263 264 266 269 271 273 278 280 277 275
289 287 283 281 281 281 280 277 276 272 272 274 273 272 272 268 262 262 264 264 269 275 278 279 279 278 276 273 268 264 263 264 264 265 264 265 268 271 276 279 279 278 275
293 290 288 282 279 277 276 277 276 272 270 271 268 268 268 264 261 259 262 263 265 269 275 279 280 280 278 274 270 268 267 265 266 267 268 269 271 274 276 277 276 274 273
296 293 291 291 286 279 276 274 274 273 272 267 264 264 263 261 258 257 258 260 263 266 269 274 279 280 279 279 268 268 269 269 269 270 271 273 275 277 279 277 275 274 273
294 292 291 290 287 283 278 274 271 269 270 267 264 263 263 261 257 259 257 262 267 271 266 272 277 280 283 281 282 267 265 268 271 273 274 276 277 279 280 279 280 278 277
300 299 295 290 286 281 278 277 274 268 267 266 265 264 262 261 260 255 256 260 261 269 266 269 276 280 281 284 282 281 271 265 268 272 276 278 280 281 283 284 284 280 277
302 297 295 290 287 284 278 275 272 267 264 264 266 264 264 263 260 255 255 258 258 264 267 271 274 278 280 280 283 284 279 271 272 271 270 274 279 284 286 284 280 275 274
300 297 293 288 283 278 272 268 268 266 265 268 269 266 263 264 264 262 258 257 259 258 261 266 269 276 277 280 282 287 276 279 281 280 282 280 284 286 287 284 278 275 278
293 290 289 290 280 270 266 263 264 266 268 268 267 267 264 263 262 261 260 262 266 258 256 266 270 269 277 276 277 280 288 285 287 293 290 286 283 285 286 282 279 280 285
283 289 296 284 280 271 259 259 259 260 262 262 262 263 264 260 260 259 259 262 265 256 257 261 269 266 274 279 278 285 285 293 294 293 287 281 284 288 286 281 281 284 292
270 283 282 280 274 269 260 253 251 253 256 257 259 262 264 261 262 266 266 265 264 258 258 256 271 268 277 274 281 281 288 293 287 288 280 280 285 288 285 282 283 290 295
269 274 272 279 266 261 257 253 248 247 250 253 257 260 259 264 269 271 269 263 261 254 256 262 267 265 272 279 276 280 290 286 287 286 278 282 284 285 282 282 288 291 295